Location: Lanoux
(43.1180°N, 1.4255°E)
Time: 19:16:26
(UTC+00:00)

Cosmos 2369 - Pass Details

Date: 25 March 2026
Orbit: 839 x 854 km, 71.0° (Epoch: 18 April)

Event Time Altitude Azimuth Distance (km) Brightness Sun altitude
Rises 05:10:14 0° 345° (NNW) 3,407 6.8 -7.9°
Reaches altitude 10° 05:13:32 10° 5° (N) 2,471 6.3 -7.3°
Maximum altitude 05:17:20 18° 47° (NE) 1,965 6.5 -6.6°
Drops below altitude 10° 05:21:07 10° 89° (E) 2,469 7.9 -5.9°
Sets 05:24:23 0° 108° (ESE) 3,404 8.2 -5.3°
